カタログに戻る

DRAGON FREEDOM 3

運用中科学VLEO
NORAD 67796·PAYLOAD·🇺🇸 United States

打ち上げ Feb 13, 2026 から Cape Canaveral Space Force Station

Loading…

次のパス (今後24時間)

TLE

最新Source: Space-Track

元期: Sep 14, 2026, 20:28 UTC

1 67796U 26031A   26257.85283187  .00006182  00000-0  11980-3 0  9990
2 67796  51.6309 216.3169 0004923 141.7352 218.3986 15.49117649586621

AllMySatでDRAGON FREEDOM 3をリアルタイム追跡

Download on the App Store